| time (UTC) | temp C | wind direction | speed KPH | gust KPH | rain 1hr cm | rain 24hr cm | rain mn cm | humidity % | barometer mb |
| 20260506004602 | 17 | 72 | 4.8 | 12.9 | 0.00 | 0.97 | 0.15 | 38 | 1014.7 |
| 20260506003053 | 16 | 72 | 1.6 | 11.3 | 0.00 | 0.97 | 0.15 | 38 | 1014.6 |
| 20260506001603 | 16 | 310 | 3.2 | 11.3 | 0.00 | 0.97 | 0.15 | 40 | 1014.5 |
| 20260506000118 | 17 | 60 | 0.0 | 16.1 | 0.00 | 0.97 | 0.15 | 42 | 1014.6 |
| 20260505234554 | 16 | 28 | 1.6 | 4.8 | 0.00 | 1.27 | 0.15 | 42 | 1014.6 |
| 20260505233057 | 16 | 144 | 4.8 | 12.9 | 0.00 | 1.27 | 0.15 | 51 | 1014.7 |
| 20260505231604 | 16 | 0 | 3.2 | 11.3 | 0.00 | 1.27 | 0.15 | 50 | 1014.8 |
| 20260505230106 | 16 | 70 | 1.6 | 9.7 | 0.00 | 1.27 | 0.15 | 49 | 1014.7 |
| 20260505224600 | 15 | 148 | 3.2 | 8.0 | 0.00 | 1.30 | 0.15 | 51 | 1015.0 |
| 20260505223055 | 14 | 313 | 4.8 | 11.3 | 0.00 | 1.30 | 0.15 | 53 | 1015.1 |
| 20260505221559 | 14 | 311 | 3.2 | 6.4 | 0.00 | 1.30 | 0.15 | 53 | 1015.3 |
| 20260505220054 | 13 | 349 | 3.2 | 8.0 | 0.00 | 1.30 | 0.15 | 54 | 1015.6 |
| 20260505214553 | 13 | 252 | 1.6 | 8.0 | 0.00 | 1.30 | 0.15 | 59 | 1015.4 |
| 20260505213054 | 13 | 102 | 1.6 | 4.8 | 0.00 | 1.30 | 0.15 | 59 | 1015.6 |
| 20260505211549 | 12 | 102 | 0.0 | 9.7 | 0.00 | 1.30 | 0.15 | 60 | 1015.8 |
| 20260505210055 | 12 | 84 | 0.0 | 9.7 | 0.00 | 1.30 | 0.15 | 65 | 1015.9 |
| 20260505204553 | 12 | 89 | 4.8 | 8.0 | 0.00 | 1.32 | 0.15 | 62 | 1016.0 |
| 20260505203059 | 12 | 48 | 3.2 | 8.0 | 0.00 | 1.32 | 0.15 | 62 | 1015.9 |
| 20260505201551 | 12 | 117 | 1.6 | 12.9 | 0.00 | 1.32 | 0.15 | 65 | 1015.8 |
| 20260505200051 | 12 | 255 | 1.6 | 11.3 | 0.00 | 1.32 | 0.15 | 67 | 1015.8 |
| 20260505194605 | 11 | 259 | 4.8 | 9.7 | 0.00 | 1.32 | 0.15 | 68 | 1015.8 |
| 20260505193053 | 11 | 310 | 3.2 | 6.4 | 0.00 | 1.32 | 0.15 | 72 | 1015.9 |
| 20260505191603 | 10 | 293 | 3.2 | 6.4 | 0.00 | 1.32 | 0.15 | 76 | 1015.9 |
| 20260505190056 | 10 | 243 | 1.6 | 6.4 | 0.00 | 1.32 | 0.15 | 76 | 1015.7 |
| 20260505184551 | 10 | 79 | 1.6 | 8.0 | 0.00 | 1.32 | 0.15 | 78 | 1015.5 |
| 20260505183053 | 9 | 105 | 0.0 | 3.2 | 0.00 | 1.32 | 0.15 | 82 | 1015.7 |
| 20260505181554 | 8 | 316 | 1.6 | 3.2 | 0.00 | 1.32 | 0.15 | 83 | 1015.7 |
| 20260505180100 | 7 | 289 | 1.6 | 8.0 | 0.00 | 1.32 | 0.15 | 84 | 1015.7 |
| 20260505174549 | 8 | 276 | 3.2 | 8.0 | 0.00 | 1.32 | 0.15 | 85 | 1015.4 |
| 20260505173110 | 7 | 297 | 3.2 | 9.7 | 0.00 | 1.32 | 0.15 | 87 | 1015.1 |
| 20260505171605 | 7 | 303 | 3.2 | 9.7 | 0.00 | 1.32 | 0.15 | 88 | 1014.9 |
| 20260505170052 | 7 | 303 | 3.2 | 9.7 | 0.00 | 1.32 | 0.15 | 89 | 1014.8 |
| 20260505164558 | 6 | 309 | 3.2 | 8.0 | 0.00 | 1.32 | 0.15 | 89 | 1014.7 |
| 20260505163053 | 6 | 295 | 3.2 | 6.4 | 0.00 | 1.32 | 0.15 | 90 | 1014.8 |
| 20260505161555 | 6 | 298 | 1.6 | 6.4 | 0.00 | 1.32 | 0.15 | 90 | 1014.5 |
| 20260505153053 | 6 | 257 | 0.0 | 3.2 | 0.00 | 1.32 | 0.15 | 91 | 1014.2 |
| 20260505151553 | 5 | 0 | 0.0 | 3.2 | 0.00 | 1.32 | 0.15 | 90 | 1014.0 |
| 20260505150111 | 5 | 0 | 0.0 | 0.0 | 0.00 | 1.32 | 0.15 | 92 | 1013.8 |
| 20260505124559 | 4 | 305 | 0.0 | 6.4 | 0.00 | 1.32 | 0.15 | 93 | 1012.4 |
| 20260505123059 | 4 | 274 | 0.0 | 3.2 | 0.00 | 1.32 | 0.15 | 93 | 1012.2 |
| 20260505121620 | 4 | 0 | 0.0 | 3.2 | 0.00 | 1.32 | 0.15 | 93 | 1012.2 |
| 20260505120057 | 4 | 312 | 1.6 | 3.2 | 0.00 | 1.32 | 0.15 | 93 | 1012.4 |
| 20260505114554 | 4 | 0 | 0.0 | 4.8 | 0.00 | 1.32 | 0.15 | 93 | 1012.4 |
| 20260505113057 | 4 | 0 | 1.6 | 3.2 | 0.00 | 1.32 | 0.15 | 93 | 1012.2 |
| 20260505111554 | 4 | 0 | 0.0 | 1.6 | 0.00 | 1.32 | 0.15 | 93 | 1012.3 |
| 20260505101557 | 4 | 247 | 0.0 | 3.2 | 0.00 | 1.32 | 0.15 | 94 | 1012.5 |
| 20260505100135 | 4 | 0 | 0.0 | 4.8 | 0.00 | 1.32 | 0.15 | 94 | 1012.5 |
| 20260505094555 | 4 | 252 | 0.0 | 1.6 | 0.00 | 1.32 | 0.15 | 94 | 1012.6 |
| 20260505093053 | 4 | 0 | 0.0 | 1.6 | 0.00 | 1.32 | 0.15 | 94 | 1013.0 |
| 20260505091615 | 4 | 0 | 0.0 | 1.6 | 0.00 | 1.32 | 0.15 | 94 | 1013.1 |
| 20260505090100 | 4 | 224 | 0.0 | 3.2 | 0.00 | 1.32 | 0.15 | 94 | 1012.8 |
| 20260505084600 | 4 | 0 | 0.0 | 0.0 | 0.03 | 1.32 | 0.15 | 94 | 1013.0 |
| 20260505083057 | 4 | 0 | 0.0 | 1.6 | 0.03 | 1.32 | 0.15 | 94 | 1013.2 |
| 20260505081600 | 4 | 297 | 0.0 | 3.2 | 0.08 | 1.32 | 0.15 | 94 | 1013.3 |
| 20260505080054 | 4 | 119 | 1.6 | 4.8 | 0.15 | 1.32 | 0.15 | 93 | 1013.2 |
| 20260505074553 | 5 | 271 | 1.6 | 11.3 | 0.15 | 1.32 | 0.13 | 93 | 1013.0 |
| 20260505073058 | 4 | 255 | 1.6 | 8.0 | 0.23 | 1.32 | 0.13 | 94 | 1012.9 |
| 20260505071552 | 4 | 0 | 0.0 | 1.6 | 0.20 | 1.27 | 0.08 | 94 | 1013.6 |
| 20260505070052 | 4 | 148 | 0.0 | 6.4 | 0.13 | 1.19 | 0.00 | 93 | 1013.4 |
| 20260505064553 | 4 | 131 | 0.0 | 6.4 | 0.10 | 1.17 | 1.17 | 93 | 1013.1 |
| 20260505063053 | 4 | 0 | 0.0 | 1.6 | 0.03 | 1.09 | 1.09 | 93 | 1012.9 |
| 20260505061549 | 4 | 92 | 0.0 | 1.6 | 0.00 | 1.07 | 1.07 | 92 | 1013.0 |
| 20260505060056 | 4 | 0 | 0.0 | 1.6 | 0.00 | 1.07 | 1.07 | 91 | 1013.0 |
| 20260505054616 | 4 | 272 | 1.6 | 3.2 | 0.00 | 1.07 | 1.07 | 92 | 1012.9 |
| 20260505053057 | 4 | 64 | 0.0 | 9.7 | 0.00 | 1.07 | 1.07 | 92 | 1013.0 |
| 20260505051552 | 5 | 151 | 0.0 | 0.0 | 0.00 | 1.07 | 1.07 | 93 | 1013.4 |
| 20260505041606 | 5 | 0 | 0.0 | 4.8 | 0.00 | 1.07 | 1.07 | 92 | 1013.0 |
| 20260505040058 | 5 | 0 | 1.6 | 3.2 | 0.03 | 1.07 | 1.07 | 92 | 1012.9 |
| 20260505034553 | 5 | 0 | 0.0 | 3.2 | 0.03 | 1.07 | 1.07 | 91 | 1012.3 |
| 20260505033057 | 4 | 0 | 0.0 | 6.4 | 0.05 | 1.07 | 1.07 | 91 | 1012.1 |
| 20260505031547 | 4 | 0 | 1.6 | 4.8 | 0.05 | 1.07 | 1.07 | 90 | 1012.6 |
| 20260505030103 | 5 | 295 | 1.6 | 9.7 | 0.03 | 1.04 | 1.04 | 89 | 1012.9 |
| 20260505024551 | 5 | 270 | 3.2 | 6.4 | 0.03 | 1.04 | 1.04 | 91 | 1012.9 |
| 20260505023058 | 5 | 0 | 1.6 | 4.8 | 0.13 | 1.02 | 1.02 | 91 | 1012.4 |
| 20260505021558 | 5 | 268 | 3.2 | 9.7 | 0.25 | 1.02 | 1.02 | 90 | 1011.9 |
| 20260505014552 | 5 | 261 | 4.8 | 16.1 | 0.56 | 1.02 | 1.02 | 90 | 1010.7 |
| 20260505013053 | 6 | 255 | 3.2 | 8.0 | 0.48 | 0.89 | 0.89 | 90 | 1012.6 |
| 20260505011554 | 6 | 0 | 0.0 | 3.2 | 0.36 | 0.76 | 0.76 | 90 | 1013.0 |
| 20260505010108 | 6 | 245 | 1.6 | 6.4 | 0.28 | 0.66 | 0.66 | 89 | 1012.8 |